Flushing, NY (11351)

11:02 AM EDT on August 29, 2015 (GMT -0400)
Cedar Grove Cemetery, Flushing | | Change Station
CLOSE
Current Station
Personal Weather Station
Location: New York, NY
Elevation: 49 ft
Nearby Weather Stations

Elev 49 ft 40.74 °N, 73.83 °W | Updated 11 minutes ago

Mostly Cloudy
Mostly Cloudy
81.1 °F
Feels Like 81 °F
N
2.2
Wind Variable Wind from West

Today
High -- | Low -- °F
--% Chance of Precip.
Yesterday
High -- | Low -- °F
Precip. -- in
6:19 AM 7:32 PM
Full, 100% visible
Pressure 30.20 in
Visibility 10.0 miles
Clouds Few 5500 ft
Mostly Cloudy 25000 ft
Heat Index 81 °F
Dew Point 56 °F
Humidity 43%
Rainfall 0.00 in
Snow Depth Not available.
UV 4 out of 12
Pollen 10.00 out of 12
Air Quality Not available.
Flu Activity Not available.
METAR KLGA 291451Z VRB03KT 10SM FEW055 BKN250 27/12 A3020 RMK AO2 SLP226 T02670117 58003
Pressure 30.20 in
Visibility 10.0 miles
Clouds Few 5500 ft
Mostly Cloudy 25000 ft
Heat Index 81 °F
Dew Point 56 °F
Humidity 43%
Rainfall 0.00 in
Snow Depth Not available.
UV 4 out of 12
Pollen 10.00 out of 12
Air Quality Not available.
Flu Activity Not available.
METAR KLGA 291451Z VRB03KT 10SM FEW055 BKN250 27/12 A3020 RMK AO2 SLP226 T02670117 58003

10-Day Weather Forecast

×

Almanac

Astronomy

Aug. 29, 2015 Rise Set
Actual Time
Civil Twilight
Nautical Twilight
Astronomical Twilight
Moon
Length of Visible Light
Length of Day
Tomorrow will be .
, % of the Moon is Illuminated

Today's Extremes

State Highs State Lows

Community

WunderPhotos

Upload Photos

1,850,684 photos uploaded!

WunderBlogs® & News

Nearby

Air Quality

  Air Quality AQ Index Pollutant
Not available.

Snow Depth

Station Depth Elevation

Earthquake Activity

City Distance Mag. Time & Date
Minimum magnitude displayed is 2.5.

Coastal Water Temperatures

Place Temperature

Stations

Nearby Weather Stations

Station Location Temp. Windchill Dew Point Humidity Wind Precip. Elev Updated Type